Location: Grassland Mountain Observatory
(35.7543°N, 82.8038°W)
Time: 18:14:26
(UTC-05:00)

X-37B - Pass Details

Date: 15 December 2021
Orbit: 331 x 339 km, 45.0° (Epoch: 27 January)

Event Time Altitude Azimuth Distance (km) Brightness Sun altitude
Rises 17:50:58 0° 305° (NW) 2,100 4.8 -6.6°
Reaches altitude 10° 17:53:39 10° 333° (NNW) 1,261 3.2 -7.1°
Maximum altitude 17:55:14 14° 8° (N) 1,061 2.5 -7.4°
Drops below altitude 10° 17:56:50 10° 43° (NE) 1,258 2.6 -7.7°
Enters shadow 17:57:01 - 45° (NE) 1,301 2.7 -7.8°
